Météo par heure à Aarau

Ce jour, 1 Décembre, Mardi

Heure Température Précipitation Vent Pression Humidité
00:00 -1°C° 0 mm 1 m/s 728 mmHg 76%
01:00 0°C° 0 mm 1 m/s 728 mmHg 73%
02:00 0°C° 0.4 mm 1 m/s 727 mmHg 77%
03:00 +1°C° 0.4 mm 1 m/s 727 mmHg 81%
04:00 +1°C° 0.4 mm 1 m/s 726 mmHg 85%
05:00 -1°C° 1.1 mm 2 m/s 726 mmHg 88%
06:00 +1°C° 1.1 mm 2 m/s 725 mmHg 91%
07:00 +1°C° 1.1 mm 2 m/s 725 mmHg 93%
08:00 +2°C° 1.2 mm 2 m/s 725 mmHg 95%
09:00 +3°C° 1.2 mm 1 m/s 724 mmHg 96%
10:00 +3°C° 1.2 mm 1 m/s 724 mmHg 97%
11:00 +3°C° 0.5 mm 1 m/s 724 mmHg 97%
12:00 +4°C° 0.5 mm 1 m/s 724 mmHg 97%
13:00 +4°C° 0.5 mm 1 m/s 724 mmHg 96%
14:00 +4°C° 0.1 mm 1 m/s 724 mmHg 97%
15:00 +2°C° 0.1 mm 0 m/s 724 mmHg 97%
16:00 +2°C° 0.1 mm 0 m/s 724 mmHg 98%
17:00 +2°C° 0.1 mm 0 m/s 724 mmHg 98%
18:00 +2°C° 0.1 mm 0 m/s 724 mmHg 98%
19:00 +1°C° 0.1 mm 0 m/s 724 mmHg 99%
20:00 +1°C° 0 mm 0 m/s 724 mmHg 98%
21:00 +1°C° 0 mm 0 m/s 725 mmHg 98%
22:00 +1°C° 0 mm 0 m/s 725 mmHg 98%
23:00 +2°C° 0 mm 1 m/s 725 mmHg 98%

Demain, 2 Décembre, Mercredi

Heure Température Précipitation Vent Pression Humidité
00:00 +2°C° 0 mm 1 m/s 725 mmHg 98%
01:00 +2°C° 0 mm 1 m/s 725 mmHg 97%
02:00 +1°C° 0 mm 1 m/s 724 mmHg 97%
03:00 +1°C° 0 mm 1 m/s 724 mmHg 97%
04:00 0°C° 0 mm 0 m/s 724 mmHg 97%
05:00 +1°C° 0.1 mm 1 m/s 724 mmHg 97%
06:00 +1°C° 0.1 mm 1 m/s 724 mmHg 98%
07:00 +1°C° 0.1 mm 1 m/s 724 mmHg 98%
08:00 +2°C° 0.1 mm 1 m/s 724 mmHg 97%
09:00 +2°C° 0.1 mm 1 m/s 723 mmHg 96%
10:00 +2°C° 0.1 mm 1 m/s 723 mmHg 96%
11:00 +2°C° 0 mm 1 m/s 723 mmHg 94%
12:00 +3°C° 0 mm 1 m/s 722 mmHg 93%
13:00 +3°C° 0 mm 1 m/s 722 mmHg 92%
14:00 +3°C° 0 mm 1 m/s 722 mmHg 93%
15:00 +3°C° 0 mm 1 m/s 722 mmHg 94%
16:00 +2°C° 0 mm 1 m/s 722 mmHg 95%
17:00 +2°C° 0.1 mm 1 m/s 722 mmHg 96%
18:00 +1°C° 0.1 mm 0 m/s 722 mmHg 96%
19:00 0°C° 0.1 mm 0 m/s 722 mmHg 97%
20:00 0°C° 0 mm 0 m/s 722 mmHg 97%
21:00 0°C° 0 mm 0 m/s 722 mmHg 97%
22:00 0°C° 0 mm 0 m/s 722 mmHg 97%
23:00 -1°C° 0 mm 0 m/s 722 mmHg 97%

Après-demain, 3 Décembre, Jeudi

Heure Température Précipitation Vent Pression Humidité
00:00 -1°C° 0 mm 0 m/s 722 mmHg 97%
01:00 -2°C° 0 mm 0 m/s 722 mmHg 97%
02:00 -2°C° 0 mm 0 m/s 721 mmHg 97%
03:00 -2°C° 0 mm 0 m/s 721 mmHg 97%
04:00 -2°C° 0 mm 0 m/s 721 mmHg 96%
05:00 -2°C° 0 mm 0 m/s 720 mmHg 96%
06:00 -2°C° 0 mm 0 m/s 720 mmHg 96%
07:00 -1°C° 0 mm 1 m/s 720 mmHg 96%
08:00 -1°C° 0 mm 1 m/s 719 mmHg 94%
09:00 0°C° 0 mm 1 m/s 719 mmHg 92%
10:00 +1°C° 0 mm 1 m/s 719 mmHg 90%
11:00 +1°C° 0 mm 1 m/s 718 mmHg 88%
12:00 +2°C° 0 mm 1 m/s 717 mmHg 85%
13:00 +3°C° 0 mm 1 m/s 716 mmHg 83%
14:00 +2°C° 0 mm 1 m/s 716 mmHg 86%
15:00 +2°C° 0 mm 1 m/s 715 mmHg 88%
16:00 +1°C° 0 mm 1 m/s 715 mmHg 91%
17:00 +1°C° 0 mm 1 m/s 714 mmHg 92%
18:00 0°C° 0 mm 1 m/s 714 mmHg 92%
19:00 -1°C° 0 mm 1 m/s 714 mmHg 93%
20:00 -1°C° 0 mm 1 m/s 713 mmHg 92%
21:00 -1°C° 0 mm 1 m/s 712 mmHg 92%
22:00 -1°C° 0 mm 1 m/s 712 mmHg 91%
23:00 0°C° 0 mm 1 m/s 711 mmHg 91%

4 Décembre, Vendredi

Heure Température Précipitation Vent Pression Humidité
00:00 0°C° 0 mm 1 m/s 710 mmHg 90%
01:00 0°C° 0 mm 1 m/s 709 mmHg 90%
02:00 0°C° 0 mm 1 m/s 709 mmHg 90%
03:00 0°C° 0 mm 1 m/s 708 mmHg 90%
04:00 0°C° 0 mm 1 m/s 707 mmHg 89%
05:00 0°C° 0 mm 1 m/s 707 mmHg 89%
06:00 0°C° 0 mm 1 m/s 707 mmHg 90%
07:00 0°C° 0 mm 1 m/s 706 mmHg 90%
08:00 +1°C° 0 mm 1 m/s 706 mmHg 88%
09:00 +1°C° 0 mm 1 m/s 706 mmHg 87%
10:00 +2°C° 0 mm 1 m/s 706 mmHg 86%
11:00 +2°C° 0 mm 1 m/s 705 mmHg 85%
12:00 +3°C° 0 mm 1 m/s 704 mmHg 84%
13:00 +4°C° 0 mm 1 m/s 704 mmHg 83%
14:00 +3°C° 0 mm 1 m/s 704 mmHg 86%
15:00 +3°C° 0 mm 1 m/s 703 mmHg 88%
16:00 +1°C° 0 mm 0 m/s 703 mmHg 91%
17:00 +1°C° 0 mm 0 m/s 703 mmHg 91%
18:00 +1°C° 0 mm 0 m/s 703 mmHg 92%
19:00 0°C° 0 mm 0 m/s 703 mmHg 92%
20:00 0°C° 0 mm 0 m/s 703 mmHg 92%
21:00 0°C° 0 mm 0 m/s 704 mmHg 92%
22:00 0°C° 0 mm 0 m/s 704 mmHg 92%
23:00 0°C° 0.1 mm 0 m/s 704 mmHg 93%

5 Décembre, Samedi

Heure Température Précipitation Vent Pression Humidité
00:00 0°C° 0.1 mm 0 m/s 704 mmHg 94%
01:00 0°C° 0.1 mm 0 m/s 704 mmHg 95%
02:00 +1°C° 0.9 mm 1 m/s 704 mmHg 96%
03:00 +1°C° 0.9 mm 1 m/s 704 mmHg 97%
04:00 +2°C° 0.9 mm 1 m/s 704 mmHg 98%
05:00 +2°C° 1.4 mm 1 m/s 705 mmHg 98%
06:00 +1°C° 1.4 mm 2 m/s 706 mmHg 98%
07:00 +1°C° 1.4 mm 2 m/s 706 mmHg 98%
08:00 +1°C° 0.9 mm 2 m/s 707 mmHg 98%
09:00 +1°C° 0.9 mm 2 m/s 708 mmHg 98%
10:00 +2°C° 0.9 mm 1 m/s 708 mmHg 98%
11:00 +2°C° 0.3 mm 1 m/s 708 mmHg 97%
12:00 +2°C° 0.3 mm 1 m/s 708 mmHg 97%
13:00 +3°C° 0.3 mm 1 m/s 708 mmHg 96%
14:00 +2°C° 0.1 mm 1 m/s 709 mmHg 96%
15:00 +2°C° 0.1 mm 1 m/s 709 mmHg 95%
16:00 +1°C° 0.1 mm 1 m/s 709 mmHg 95%
17:00 +1°C° 0.1 mm 1 m/s 709 mmHg 95%
18:00 0°C° 0.1 mm 1 m/s 710 mmHg 95%
19:00 0°C° 0.1 mm 1 m/s 710 mmHg 96%
20:00 0°C° 0.3 mm 1 m/s 710 mmHg 96%
21:00 0°C° 0.3 mm 1 m/s 711 mmHg 96%
22:00 0°C° 0.3 mm 1 m/s 711 mmHg 97%
23:00 0°C° 0.3 mm 1 m/s 711 mmHg 97%

6 Décembre, Dimanche

Heure Température Précipitation Vent Pression Humidité
00:00 0°C° 0.3 mm 1 m/s 711 mmHg 97%
01:00 -1°C° 0.3 mm 0 m/s 712 mmHg 97%
02:00 0°C° 0.2 mm 1 m/s 711 mmHg 97%
03:00 -1°C° 0.2 mm 1 m/s 711 mmHg 97%
04:00 -1°C° 0.2 mm 1 m/s 711 mmHg 97%
05:00 -1°C° 0.3 mm 1 m/s 712 mmHg 97%
06:00 -1°C° 0.3 mm 1 m/s 712 mmHg 97%
07:00 -1°C° 0.3 mm 1 m/s 712 mmHg 97%
08:00 0°C° 0.1 mm 1 m/s 712 mmHg 96%
09:00 0°C° 0.1 mm 1 m/s 713 mmHg 96%
10:00 0°C° 0.1 mm 1 m/s 713 mmHg 95%
11:00 +1°C° 0 mm 1 m/s 713 mmHg 93%
12:00 +1°C° 0 mm 1 m/s 713 mmHg 91%
13:00 +2°C° 0 mm 1 m/s 713 mmHg 90%
14:00 +2°C° 0 mm 1 m/s 713 mmHg 91%
15:00 +1°C° 0 mm 1 m/s 714 mmHg 92%
16:00 +1°C° 0 mm 1 m/s 714 mmHg 93%
17:00 +1°C° 0 mm 1 m/s 715 mmHg 93%
18:00 0°C° 0 mm 1 m/s 715 mmHg 93%
19:00 0°C° 0 mm 1 m/s 716 mmHg 93%
20:00 -1°C° 0 mm 1 m/s 716 mmHg 93%
21:00 -1°C° 0 mm 1 m/s 717 mmHg 93%
22:00 -1°C° 0 mm 1 m/s 717 mmHg 93%
23:00 -2°C° 0 mm 1 m/s 717 mmHg 93%
Voir plus

Nous avons besoin de votre consentement

Meteoprog et ses fournisseurs de services peuvent stocker et accéder à des données personnelles telles que des cookies, des identifiants d'appareils ou d'autres technologies similaires sur votre appareil et traiter ces données pour personnaliser le contenu et les publicités, ainsi que pour fournir des fonctionnalités de médias sociaux et analyser le trafic.

  • Stocker et/ou accéder à des informations sur votre appareil

    Des cookies, des identifiants d'appareils ou d'autres informations peuvent être stockés ou accessibles sur votre appareil aux fins indiquées ci-dessus.

  • Annonces et contenus personnalisés, mesure des annonces et des contenus, connaissance de l'audience et développement de produits

    Les annonces et le contenu peuvent être personnalisés en fonction d'un profil. D'autres données peuvent être ajoutées pour mieux personnaliser les annonces et le contenu. Les performances des publicités et du contenu peuvent être mesurées. Il est possible d'obtenir des informations sur le public qui a vu les publicités et le contenu. Ces données peuvent être utilisées pour développer ou améliorer l'expérience de l'utilisateur, les systèmes et les logiciels.

En cliquant sur "J'accepte", vous autorisez l'utilisation de cookies, des identifiants d'appareils, des balises web ou d'autres technologies similaires. Vos paramètres peuvent être modifiés dans le navigateur de votre appareil.

Dans certains cas, des intérêts légitimes peuvent être invoqués plutôt qu'un consentement. Vous pouvez en savoir plus à ce sujet dans notre Politique de confidentialité et de cookies.